Location: Rumah Dana
(3.1167°N, 113.0167°E)
Time: 04:11:15
(UTC+00:00)

CZ-3B Rocket - Pass Details

Date: 20 January 2026
Orbit: 592 x 35744 km, 18.9° (Epoch: 11 February)

Event Time Altitude Azimuth Distance (km) Brightness Sun altitude
Rises 10:59:45 0° 239° (WSW) 3,396 7.5 -5.9°
Reaches altitude 10° 11:02:27 10° 229° (SW) 2,032 5.6 -6.6°
Maximum altitude 11:05:50 37° 158° (SSE) 939 2.5 -7.4°
Drops below altitude 10° 11:09:59 10° 88° (E) 2,505 4.1 -8.4°
Enters shadow 11:10:22 - 86° (E) 2,696 4.2 -8.4°
